Year,Month,Day,Hour,Minute,Value (Times are PST for temperature in C)
2012,10,23,09,14,5.40
2012,10,23,09,15,5.40
2012,10,23,09,16,5.40
2012,10,23,09,17,5.40
2012,10,23,09,18,5.40
2012,10,23,09,19,5.40
2012,10,23,09,20,5.40
2012,10,23,09,21,5.30
2012,10,23,09,22,5.30
2012,10,23,09,23,5.40
2012,10,23,09,24,5.30
2012,10,23,09,25,5.30
2012,10,23,09,26,5.30
2012,10,23,09,27,5.30
2012,10,23,09,28,5.30
2012,10,23,09,29,5.30
2012,10,23,09,30,5.30
2012,10,23,09,31,5.30
2012,10,23,09,32,5.30
2012,10,23,09,33,5.30
2012,10,23,09,34,5.30
2012,10,23,09,35,5.30
2012,10,23,09,36,5.30
2012,10,23,09,37,5.30
2012,10,23,09,38,5.30
2012,10,23,09,39,5.30
2012,10,23,09,40,5.30
2012,10,23,09,41,5.30
2012,10,23,09,42,5.30
2012,10,23,09,43,5.30
2012,10,23,09,44,5.30
2012,10,23,09,45,5.30
2012,10,23,09,46,5.40
2012,10,23,09,47,5.40
2012,10,23,09,48,5.40
2012,10,23,09,49,5.40
2012,10,23,09,50,5.40
2012,10,23,09,51,5.40
2012,10,23,09,52,5.40
2012,10,23,09,53,5.40
2012,10,23,09,54,5.40
2012,10,23,09,55,5.40
2012,10,23,09,56,5.40
2012,10,23,09,57,5.50
2012,10,23,09,58,5.50
2012,10,23,09,59,5.50
2012,10,23,10,00,5.60
2012,10,23,10,01,5.60
2012,10,23,10,02,5.60
2012,10,23,10,03,5.60
2012,10,23,10,04,5.60
2012,10,23,10,05,5.60
2012,10,23,10,06,5.60
2012,10,23,10,07,5.60
2012,10,23,10,08,5.70
2012,10,23,10,09,5.70
2012,10,23,10,10,5.70
2012,10,23,10,11,5.70
2012,10,23,10,12,5.70
2012,10,23,10,13,5.70
2012,10,23,10,14,5.80
2012,10,23,10,15,5.80
2012,10,23,10,16,5.80
2012,10,23,10,17,5.80
2012,10,23,10,18,5.80
2012,10,23,10,19,5.80
2012,10,23,10,20,5.80
2012,10,23,10,21,5.80
2012,10,23,10,22,5.90
2012,10,23,10,23,5.90
2012,10,23,10,24,5.90
2012,10,23,10,25,5.90
2012,10,23,10,26,5.90
2012,10,23,10,27,5.90
2012,10,23,10,28,5.90
2012,10,23,10,29,5.90
2012,10,23,10,30,6.00
2012,10,23,10,31,6.00
2012,10,23,10,32,6.00
2012,10,23,10,33,6.00
2012,10,23,10,34,6.00
2012,10,23,10,35,6.10
2012,10,23,10,36,6.10
2012,10,23,10,37,6.10
2012,10,23,10,38,6.10
2012,10,23,10,39,6.20
2012,10,23,10,40,6.20
2012,10,23,10,41,6.30
2012,10,23,10,42,6.30
2012,10,23,10,43,6.30
2012,10,23,10,44,6.40
2012,10,23,10,45,6.40
2012,10,23,10,46,6.50
2012,10,23,10,47,6.50
2012,10,23,10,48,6.50
2012,10,23,10,49,6.50
2012,10,23,10,50,6.50
2012,10,23,10,51,6.60
2012,10,23,10,52,6.60
2012,10,23,10,53,6.60
2012,10,23,10,54,6.60
2012,10,23,10,55,6.60
2012,10,23,10,56,6.70
2012,10,23,10,57,6.60
2012,10,23,10,58,6.60
2012,10,23,10,59,6.60
2012,10,23,11,00,6.70
2012,10,23,11,01,6.70
2012,10,23,11,02,6.70
2012,10,23,11,03,6.80
2012,10,23,11,04,6.80
2012,10,23,11,05,6.80
2012,10,23,11,06,6.80
2012,10,23,11,07,6.80
2012,10,23,11,08,6.90
2012,10,23,11,09,6.90
2012,10,23,11,10,6.90
2012,10,23,11,11,7.00
2012,10,23,11,12,7.10
2012,10,23,11,13,7.10
2012,10,23,11,14,7.10
2012,10,23,11,15,7.20
2012,10,23,11,16,7.20
2012,10,23,11,17,7.30
2012,10,23,11,18,7.30
2012,10,23,11,19,7.40
2012,10,23,11,20,7.40
2012,10,23,11,21,7.40
2012,10,23,11,22,7.40
2012,10,23,11,23,7.30
2012,10,23,11,24,7.20
2012,10,23,11,25,7.20
2012,10,23,11,26,7.20
2012,10,23,11,27,7.10
2012,10,23,11,28,7.10
2012,10,23,11,29,7.00
2012,10,23,11,30,7.00
2012,10,23,11,31,7.00
2012,10,23,11,32,6.90
2012,10,23,11,33,7.00
2012,10,23,11,34,7.00
2012,10,23,11,35,7.00
2012,10,23,11,36,7.10
2012,10,23,11,37,7.20
2012,10,23,11,38,7.20
2012,10,23,11,39,7.30
2012,10,23,11,40,7.50
2012,10,23,11,41,7.60
2012,10,23,11,42,7.70
2012,10,23,11,43,7.80
2012,10,23,11,44,7.80
2012,10,23,11,45,8.00
2012,10,23,11,46,8.00
2012,10,23,11,47,8.10
2012,10,23,11,48,8.20
2012,10,23,11,49,8.20
2012,10,23,11,50,8.10
2012,10,23,11,51,7.90
2012,10,23,11,52,7.80
2012,10,23,11,53,7.70
2012,10,23,11,54,7.50
2012,10,23,11,55,7.50
2012,10,23,11,56,7.40
2012,10,23,11,57,7.30
2012,10,23,11,58,7.30
2012,10,23,11,59,7.30
2012,10,23,12,00,7.20
2012,10,23,12,01,7.20
2012,10,23,12,02,7.20
2012,10,23,12,03,7.20
2012,10,23,12,04,7.20
2012,10,23,12,05,7.20
2012,10,23,12,06,7.20
2012,10,23,12,07,7.20
2012,10,23,12,08,7.20
2012,10,23,12,09,7.20
2012,10,23,12,10,7.30
2012,10,23,12,11,7.20
2012,10,23,12,12,7.30
2012,10,23,12,13,7.30
2012,10,23,12,14,7.30
2012,10,23,12,15,7.30
2012,10,23,12,16,7.30
2012,10,23,12,17,7.30
2012,10,23,12,18,7.30
2012,10,23,12,19,7.20
2012,10,23,12,20,7.20
2012,10,23,12,21,7.20
2012,10,23,12,22,7.20
2012,10,23,12,23,7.20
2012,10,23,12,24,7.10
2012,10,23,12,25,7.10
2012,10,23,12,26,7.10
2012,10,23,12,27,7.10
2012,10,23,12,28,7.10
2012,10,23,12,29,7.10
2012,10,23,12,30,7.10
2012,10,23,12,31,7.10
2012,10,23,12,32,7.20
2012,10,23,12,33,7.20
2012,10,23,12,34,7.10
2012,10,23,12,35,7.10
2012,10,23,12,36,7.10
2012,10,23,12,37,7.20
2012,10,23,12,38,7.20
2012,10,23,12,39,7.10
2012,10,23,12,40,7.10
2012,10,23,12,41,7.10
2012,10,23,12,42,7.00
2012,10,23,12,43,7.00
2012,10,23,12,44,7.00
2012,10,23,12,45,7.00
2012,10,23,12,46,7.00
2012,10,23,12,47,7.00
2012,10,23,12,48,7.00
2012,10,23,12,49,7.10
2012,10,23,12,50,7.10
2012,10,23,12,51,7.10
2012,10,23,12,52,7.10
2012,10,23,12,53,7.10
2012,10,23,12,54,7.10
2012,10,23,12,55,7.10
2012,10,23,12,56,7.10
2012,10,23,12,57,7.00
2012,10,23,12,58,7.00
2012,10,23,12,59,7.00
2012,10,23,13,00,7.00
2012,10,23,13,01,7.00
2012,10,23,13,02,7.00
2012,10,23,13,03,7.00
2012,10,23,13,04,7.10
2012,10,23,13,05,7.10
2012,10,23,13,06,7.10
2012,10,23,13,07,7.10
2012,10,23,13,08,7.10
2012,10,23,13,09,7.10
2012,10,23,13,10,7.10
2012,10,23,13,11,7.10
2012,10,23,13,12,7.10
2012,10,23,13,13,7.10
2012,10,23,13,14,7.10
2012,10,23,13,15,7.10
2012,10,23,13,16,7.10
2012,10,23,13,17,7.10
2012,10,23,13,18,7.20
2012,10,23,13,19,7.20
2012,10,23,13,20,7.20
2012,10,23,13,21,7.20
2012,10,23,13,22,7.20
2012,10,23,13,23,7.20
2012,10,23,13,24,7.20
2012,10,23,13,25,7.20
2012,10,23,13,26,7.20
2012,10,23,13,27,7.20
2012,10,23,13,28,7.20
2012,10,23,13,29,7.30
2012,10,23,13,30,7.30
2012,10,23,13,31,7.40
2012,10,23,13,32,7.30
2012,10,23,13,33,7.40
2012,10,23,13,34,7.50
2012,10,23,13,35,7.50
2012,10,23,13,36,7.60
2012,10,23,13,37,7.70
2012,10,23,13,38,7.80
2012,10,23,13,39,7.90
2012,10,23,13,40,7.80
2012,10,23,13,41,7.80
2012,10,23,13,42,7.70
2012,10,23,13,43,7.70
2012,10,23,13,44,7.70
2012,10,23,13,45,7.70
2012,10,23,13,46,7.60
2012,10,23,13,47,7.60
2012,10,23,13,48,7.50
2012,10,23,13,49,7.40
2012,10,23,13,50,7.40
2012,10,23,13,51,7.40
2012,10,23,13,52,7.50
2012,10,23,13,53,7.50
2012,10,23,13,54,7.50
2012,10,23,13,55,7.50
2012,10,23,13,56,7.50
2012,10,23,13,57,7.50
2012,10,23,13,58,7.60
2012,10,23,13,59,7.60
2012,10,23,14,00,7.70
2012,10,23,14,01,7.80
2012,10,23,14,02,7.80
2012,10,23,14,03,7.80
2012,10,23,14,04,7.80
2012,10,23,14,05,7.80
2012,10,23,14,06,7.80
2012,10,23,14,07,7.80
2012,10,23,14,08,7.80
2012,10,23,14,09,7.90
2012,10,23,14,10,7.90
2012,10,23,14,11,7.90
2012,10,23,14,12,7.80
2012,10,23,14,13,7.70
2012,10,23,14,14,7.60
2012,10,23,14,15,7.60
2012,10,23,14,16,7.60
2012,10,23,14,17,7.60
2012,10,23,14,18,7.50
2012,10,23,14,19,7.50
2012,10,23,14,20,7.40
2012,10,23,14,21,7.40
2012,10,23,14,22,7.40
2012,10,23,14,23,7.40
2012,10,23,14,24,7.40
2012,10,23,14,25,7.40
2012,10,23,14,26,7.50
2012,10,23,14,27,7.60
2012,10,23,14,28,7.70
2012,10,23,14,29,7.70
2012,10,23,14,30,7.80
2012,10,23,14,31,7.80
2012,10,23,14,32,7.90
2012,10,23,14,33,7.90
2012,10,23,14,34,7.90
2012,10,23,14,35,7.90
2012,10,23,14,36,7.90
2012,10,23,14,37,7.90
2012,10,23,14,38,7.90
2012,10,23,14,39,7.90
2012,10,23,14,40,7.90
2012,10,23,14,41,7.90
2012,10,23,14,42,7.90
2012,10,23,14,43,8.00
2012,10,23,14,44,8.00
2012,10,23,14,45,8.00
2012,10,23,14,46,7.90
2012,10,23,14,47,7.90
2012,10,23,14,48,7.90
2012,10,23,14,49,7.90
2012,10,23,14,50,7.80
2012,10,23,14,51,7.80
2012,10,23,14,52,7.80
2012,10,23,14,53,7.80
2012,10,23,14,54,7.80
2012,10,23,14,55,7.80
2012,10,23,14,56,7.80
2012,10,23,14,57,7.70
2012,10,23,14,58,7.70
2012,10,23,14,59,7.70
2012,10,23,15,00,7.60
2012,10,23,15,01,7.60
2012,10,23,15,02,7.60
2012,10,23,15,03,7.50
2012,10,23,15,04,7.40
2012,10,23,15,05,7.40
2012,10,23,15,06,7.40
2012,10,23,15,07,7.40
2012,10,23,15,08,7.40
2012,10,23,15,09,7.40
2012,10,23,15,10,7.40
2012,10,23,15,11,7.40
2012,10,23,15,12,7.40
2012,10,23,15,13,7.40
2012,10,23,15,14,7.40
2012,10,23,15,15,7.40
2012,10,23,15,16,7.40
2012,10,23,15,17,7.40
2012,10,23,15,18,7.40
2012,10,23,15,19,7.40
2012,10,23,15,20,7.40
2012,10,23,15,21,7.40
2012,10,23,15,22,7.40
2012,10,23,15,23,7.40
2012,10,23,15,24,7.40
2012,10,23,15,25,7.30
2012,10,23,15,26,7.30
2012,10,23,15,27,7.30
2012,10,23,15,28,7.40
2012,10,23,15,29,7.40
2012,10,23,15,30,7.40
2012,10,23,15,31,7.40
2012,10,23,15,32,7.40
2012,10,23,15,33,7.40
2012,10,23,15,34,7.40
2012,10,23,15,35,7.40
2012,10,23,15,36,7.50
2012,10,23,15,37,7.50
2012,10,23,15,38,7.50
2012,10,23,15,39,7.50
2012,10,23,15,40,7.60
2012,10,23,15,41,7.60
2012,10,23,15,42,7.60
2012,10,23,15,43,7.60
2012,10,23,15,44,7.70
2012,10,23,15,45,7.70
2012,10,23,15,46,7.70
2012,10,23,15,47,7.70
2012,10,23,15,48,7.70
2012,10,23,15,49,7.60
2012,10,23,15,50,7.60
2012,10,23,15,51,7.60
2012,10,23,15,52,7.50
2012,10,23,15,53,7.50
2012,10,23,15,54,7.40
2012,10,23,15,55,7.40
2012,10,23,15,56,7.40
2012,10,23,15,57,7.40
2012,10,23,15,58,7.40
2012,10,23,15,59,7.40
2012,10,23,16,00,7.40
2012,10,23,16,01,7.40
2012,10,23,16,02,7.40
2012,10,23,16,03,7.40
2012,10,23,16,04,7.40
2012,10,23,16,05,7.40
2012,10,23,16,06,7.40
2012,10,23,16,07,7.40
2012,10,23,16,08,7.40
2012,10,23,16,09,7.30
2012,10,23,16,10,7.30
2012,10,23,16,11,7.30
2012,10,23,16,12,7.30
2012,10,23,16,13,7.30
2012,10,23,16,14,7.30
2012,10,23,16,15,7.30
2012,10,23,16,16,7.30
2012,10,23,16,17,7.20
2012,10,23,16,18,7.20
2012,10,23,16,19,7.20
2012,10,23,16,20,7.20
2012,10,23,16,21,7.20
2012,10,23,16,22,7.20
2012,10,23,16,23,7.20
2012,10,23,16,24,7.20
2012,10,23,16,25,7.20
2012,10,23,16,26,7.20
2012,10,23,16,27,7.20
2012,10,23,16,28,7.20
2012,10,23,16,29,7.20
2012,10,23,16,30,7.20
2012,10,23,16,31,7.20
2012,10,23,16,32,7.20
2012,10,23,16,33,7.10
2012,10,23,16,34,7.10
2012,10,23,16,35,7.10
2012,10,23,16,36,7.10
2012,10,23,16,37,7.10
2012,10,23,16,38,7.10
2012,10,23,16,39,7.10
2012,10,23,16,40,7.10
2012,10,23,16,41,7.10
2012,10,23,16,42,7.10
2012,10,23,16,43,7.10
2012,10,23,16,44,7.10
2012,10,23,16,45,7.10
2012,10,23,16,46,7.10
2012,10,23,16,47,7.10
2012,10,23,16,48,7.10
2012,10,23,16,49,7.10
2012,10,23,16,50,7.10
2012,10,23,16,51,7.00
2012,10,23,16,52,7.00
2012,10,23,16,53,7.00
2012,10,23,16,54,7.00
2012,10,23,16,55,7.00
2012,10,23,16,56,7.00
2012,10,23,16,57,7.00
2012,10,23,16,58,7.00
2012,10,23,16,59,7.00
2012,10,23,17,00,6.90
2012,10,23,17,01,6.90
2012,10,23,17,02,6.90
2012,10,23,17,03,6.90
2012,10,23,17,04,6.90
2012,10,23,17,05,6.90
2012,10,23,17,06,6.90
2012,10,23,17,07,6.90
2012,10,23,17,08,6.80
2012,10,23,17,09,6.80
2012,10,23,17,10,6.80
2012,10,23,17,11,6.80
2012,10,23,17,12,6.80
2012,10,23,17,13,6.80
2012,10,23,17,14,6.80
2012,10,23,17,15,6.80
2012,10,23,17,16,6.80
2012,10,23,17,17,6.80
2012,10,23,17,18,6.80
2012,10,23,17,19,6.80
2012,10,23,17,20,6.80
2012,10,23,17,21,6.80
2012,10,23,17,22,6.80
2012,10,23,17,23,6.80
2012,10,23,17,24,6.80
2012,10,23,17,25,6.80
2012,10,23,17,26,6.80
2012,10,23,17,27,6.80
2012,10,23,17,28,6.80
2012,10,23,17,29,6.80
2012,10,23,17,30,6.80
2012,10,23,17,31,6.80
2012,10,23,17,32,6.80
2012,10,23,17,33,6.80
2012,10,23,17,34,6.80
2012,10,23,17,35,6.80
2012,10,23,17,36,6.80
2012,10,23,17,37,6.80
2012,10,23,17,38,6.80
2012,10,23,17,39,6.80
2012,10,23,17,40,6.90
2012,10,23,17,41,6.90
2012,10,23,17,42,6.90
2012,10,23,17,43,6.90
2012,10,23,17,44,6.90
2012,10,23,17,45,6.90
2012,10,23,17,46,6.90
2012,10,23,17,47,6.90
2012,10,23,17,48,6.90
2012,10,23,17,49,6.90
2012,10,23,17,50,6.90
2012,10,23,17,51,6.90
2012,10,23,17,52,6.90
2012,10,23,17,53,6.90
2012,10,23,17,54,6.90
2012,10,23,17,55,6.80
2012,10,23,17,56,6.80
2012,10,23,17,57,6.80
2012,10,23,17,58,6.80
2012,10,23,17,59,6.80
2012,10,23,18,00,6.80
2012,10,23,18,01,6.80
2012,10,23,18,02,6.80
2012,10,23,18,03,6.80
2012,10,23,18,04,6.80
2012,10,23,18,05,6.80
2012,10,23,18,06,6.80
2012,10,23,18,07,6.90
2012,10,23,18,08,6.90
2012,10,23,18,09,6.80
2012,10,23,18,10,6.90
2012,10,23,18,11,6.80
2012,10,23,18,12,6.80
2012,10,23,18,13,6.80
2012,10,23,18,14,6.80
2012,10,23,18,15,6.80
2012,10,23,18,16,6.80
2012,10,23,18,17,6.80
2012,10,23,18,18,6.80
2012,10,23,18,19,6.80
2012,10,23,18,20,6.70
2012,10,23,18,21,6.70
2012,10,23,18,22,6.70
2012,10,23,18,23,6.70
2012,10,23,18,24,6.80
2012,10,23,18,25,6.70
2012,10,23,18,26,6.70
2012,10,23,18,27,6.70
2012,10,23,18,28,6.70
2012,10,23,18,29,6.70
2012,10,23,18,30,6.70
2012,10,23,18,31,6.70
2012,10,23,18,32,6.70
2012,10,23,18,33,6.70
2012,10,23,18,34,6.70
2012,10,23,18,35,6.70
2012,10,23,18,36,6.70
2012,10,23,18,37,6.70
2012,10,23,18,38,6.70
2012,10,23,18,39,6.70
2012,10,23,18,40,6.70
2012,10,23,18,41,6.70
2012,10,23,18,42,6.70
2012,10,23,18,43,6.70
2012,10,23,18,44,6.70
2012,10,23,18,45,6.70
2012,10,23,18,46,6.70
2012,10,23,18,47,6.70
2012,10,23,18,48,6.70
2012,10,23,18,49,6.70
2012,10,23,18,50,6.70
2012,10,23,18,51,6.70
2012,10,23,18,52,6.70
2012,10,23,18,53,6.60
2012,10,23,18,54,6.60
2012,10,23,18,55,6.60
2012,10,23,18,56,6.60
2012,10,23,18,57,6.60
2012,10,23,18,58,6.60
2012,10,23,18,59,6.60
2012,10,23,19,00,6.60
2012,10,23,19,01,6.60
2012,10,23,19,02,6.60
2012,10,23,19,03,6.60
2012,10,23,19,04,6.60
2012,10,23,19,05,6.60
2012,10,23,19,06,6.70
2012,10,23,19,07,6.60
2012,10,23,19,08,6.60
2012,10,23,19,09,6.60
2012,10,23,19,10,6.60
2012,10,23,19,11,6.60
2012,10,23,19,12,6.60
2012,10,23,19,13,6.60
2012,10,23,19,14,6.60
2012,10,23,19,15,6.60
2012,10,23,19,16,6.60
2012,10,23,19,17,6.60
2012,10,23,19,18,6.60
2012,10,23,19,19,6.60
2012,10,23,19,20,6.60
2012,10,23,19,21,6.60
2012,10,23,19,22,6.60
2012,10,23,19,23,6.60
2012,10,23,19,24,6.60
2012,10,23,19,25,6.60
2012,10,23,19,26,6.60
2012,10,23,19,27,6.60
2012,10,23,19,28,6.60
2012,10,23,19,29,6.60
2012,10,23,19,30,6.60
2012,10,23,19,31,6.60
2012,10,23,19,32,6.60
2012,10,23,19,33,6.60
2012,10,23,19,34,6.60
2012,10,23,19,35,6.60
2012,10,23,19,36,6.60
2012,10,23,19,37,6.60
2012,10,23,19,38,6.60
2012,10,23,19,39,6.60
2012,10,23,19,40,6.60
2012,10,23,19,41,6.60
2012,10,23,19,42,6.60
